Погода в Нова-Руде

Польша     50°35′31″N   16°30′59″E
темп.,
°C
ветер,
м/с
пор.,
м/с
влажн.,
%
обл.,
%
осадки,
мм/ч
давл.,
гПа
погр.,
м
26 февраля, пт
пт2601:00+6зюз22870 0.0 102923
04:00+5зюз22850 0.0 102722
07:00+4зюз22861 0.0 102723
10:00+9зюз487066 0.0 1027378
13:00+11з346469 0.0 1026526
16:00+9ссз358295 0.1 1026433
19:00+4ссз498497 0.2 1028596
22:00+3сз2789100 1.9 1030680
27 февраля, сб
сб2701:00+2зсз249392 2.1 1032137
04:00+1зсз269423 0.0 1031226
07:00+1зсз379127 0.0 1033444
10:00+3сз4781100 0.0 1034789
13:00+4ссз4677100 0.1 1035800
16:00+3ссз367878 0.0 1035605
19:00−1ссз229343 0.0 103626
22:00+1ссз358681 0.0 1037574
28 февраля, вс
вс2801:00+1зсз128489 0.0 1037114
04:00−1з119241 0.0 103621
07:00−1зюз129066 0.0 103637
10:00+2зсз1271100 0.0 1036383
13:00+6ссв125770 0.0 1036708
16:00+6зсз12580 0.0 1034645
19:00+2зсз22820 0.0 103522
22:00+1зсз11890 0.0 103522
1 марта, пн
пн101:00+1зсз11920 0.0 103622
04:00+1сз119539 0.0 103522
07:00+2св119569 0.0 103532
10:00+3всв128497 0.0 1036410
13:00+6в227063 0.0 1036462
16:00+7всв22680 0.0 1034436
19:00+3всв11860 0.0 103522
22:00+1ю11900 0.0 103522
2 марта, вт
вт201:00+1зюз12890 0.0 103522
04:00+1юз12870 0.0 103422
07:00+1юз22820 0.0 103423
10:00+7юз35550 0.0 1034460
13:00+10ююз35480 0.0 1033612
16:00+8ююз37600 0.0 1031686
19:00+3ююз23840 0.0 103153
22:00+2юз23880 0.0 103239